Weather past 2 weeks in Saint-Pierre, Saint Pierre and Miquelon

Now
38 °F

Overcast.


Feels Like: 29 °F
Forecast: 39 / 43 °F
Wind: 16 mph from Southeast

Location: Saint-Pierre

Current Time: Dec 24, 2014 at 11:59:50 PM

Latest Report: Dec 24, 2014 at 11:00 PM


Visibility: 1 mi

Pressure: 30.38 "Hg

Humidity: 89%

Dew point: 35 °F

Location of Saint-PierreLocation

Historic Weather in Saint-Pierre — Graph

°F

Saint-Pierre temperature yesterday

Maximum temperature yesterday: 32 °F (at 10:00 PM)
Minimum temperature yesterday: 27 °F (at 1:00 AM)
Average temperature yesterday: 30 °F

Past Weeks' High & Low Weather Summary

 TemperatureHumidityPressure
High48 °F (Dec 13, 11:00 PM)100% (Dec 10, 8:00 PM)30.58 "Hg (Dec 10, 8:00 PM)
Low27 °F (Dec 22, 9:00 PM)63% (Dec 20, 9:00 PM)29.26 "Hg (Dec 19, 5:00 AM)
Average37 °F91%30.05 "Hg
* Reported Dec 9 11:00 PM — Dec 24 11:00 PM, Saint-Pierre, Weather by CustomWeather, © 2014

Note: Actual official high and low records may vary slightly from our data, if they occured in-between our weather recording intervals... More about our weather records

Advertising

Saint-Pierre weather history for previous 24 hours

 ConditionsComfort  
Time TempWeatherWind HumidityBarometerVisibility
11:00 PM
Dec 24
38 °FOvercast.16 mph89%30.38 "Hg1 mi
10:00 PM38 °FOvercast.13 mph92%30.41 "Hg1 mi
9:00 PM38 °FOvercast.13 mph94%30.42 "Hg1 mi
8:00 PM38 °FOvercast.13 mph96%30.41 "Hg19 mi
7:00 PM37 °FOvercast.14 mph98%30.37 "Hg19 mi
5:00 PM38 °FDrizzle. Low clouds.13 mph99%30.38 "Hg5 mi
4:00 PM37 °FDrizzle. Low clouds.15 mph98%30.37 "Hg3 mi
3:00 PM38 °FLow clouds.14 mph98%30.37 "Hg7 mi
2:00 PM39 °FDrizzle. Low clouds.10 mph99%30.38 "Hg6 mi
1:00 PM38 °FDrizzle. Low clouds.13 mph99%30.41 "Hg6 mi
12:00 PM36 °FDrizzle. Low clouds.16 mph99%30.42 "Hg6 mi
11:00 AM35 °FLight rain. Low clouds.17 mph100%30.44 "Hg5 mi
10:00 AM35 °FLight rain. Low clouds.18 mph99%30.43 "Hg5 mi
9:00 AM35 °FDrizzle. Low clouds.15 mph98%30.42 "Hg2 mi
8:00 AM34 °FDrizzle. Low clouds.16 mph98%30.41 "Hg4 mi
7:00 AM34 °FLight snow. Low clouds.13 mph94%30.43 "Hg4 mi
5:00 AM33 °FRain. Overcast.12 mph89%30.41 "Hg6 mi
4:00 AM33 °FDrizzle. Overcast.12 mph84%30.42 "Hg31 mi
3:00 AM33 °FOvercast.9 mph84%30.44 "Hg37 mi
2:00 AM33 °FOvercast.9 mph83%30.43 "Hg37 mi
1:00 AM33 °FOvercast.8 mph83%30.43 "Hg37 mi
12:00 AM32 °FOvercast.7 mph82%30.45 "Hg37 mi
11:00 PM
Dec 23
32 °FOvercast.7 mph80%30.45 "Hg37 mi
Weather by CustomWeather, © 2014

See weather overviewHow to use our weather pages